Regional Weather Roundup
Issued by NWS Charleston, SC

Current Version | Previous Version | Graphics & Text | Print | Product List | Glossary On
Versions: 1 2 3 4 5 6 7 8 9 10 11 12 13 14 15 16 17 18 19 20 21 22 23 24 25 26 27 28 29 30 31 32 33 34 35 36 37 38 39 40 41 42 43 44 45 46 47 48 49 50
000
ASUS42 KCHS 231427
RWRCHS

REGIONAL WEATHER ROUNDUP
NATIONAL WEATHER SERVICE CHARLESTON SC
900 AM EST MON JAN 23 2017

NOTE: "FAIR" INDICATES FEW OR NO CLOUDS BELOW 12,000 FEET WITH NO
SIGNIFICANT WEATHER AND/OR OBSTRUCTIONS TO VISIBILITY.

NOT ALL STATIONS ARE QUALITY CONTROLLED. USE DATA WITH CAUTION...
ESPECIALLY DEWPOINT OBSERVATIONS.

SCZ027-030-031-034>040-042>050-231500-
...SOUTHEAST SOUTH CAROLINA...

CITY           SKY/WX    TMP DP  RH WIND       PRES   REMARKS
N CHARLESTON   CLOUDY    57  48  72 SW10      29.31S
WATERFRONT PRK   N/A     57  50  77 SW6       29.29F
MOUNT PLEASANT FAIR      57  48  72 SW9       29.32R
JOHNS ISLAND   FAIR      57  52  82 S9G15     29.32R
PINOPOLIS        N/A     55  50  82 S7        29.22S
MONCKS CORNER  PTSUNNY   54  46  76 SW7       29.31R
SUMMERVILLE    RAIN      54  54 100 CALM      29.32R
BEAUFORT MCAS  LGT RAIN  54  50  86 SW10      29.31R
BEAUFORT ARPT  RAIN      52  50  93 SW14      29.32R
HILTON HEAD IS NOT AVBL
WALTERBORO     LGT RAIN  52  50  93 S9        29.32R
ALLENDALE      CLOUDY    52  50  93 VRB3      29.29R

...SOUTHERN MIDLANDS AND PEE DEE...

CITY           SKY/WX    TMP DP  RH WIND       PRES   REMARKS
GEORGETOWN     FAIR      57  50  77 S10       29.32S
KINGSTREE      FAIR      54  46  76 S5        29.30R
ORANGEBURG     LGT RAIN  51  50  96 SW8       29.30R FOG
BARNWELL       DRIZZLE   52  52 100 SW6       29.29R
AIKEN          PTSUNNY   50  48  93 S7        29.30S
MANNING        FAIR      52  39  62 S5        29.30S
COLUMBIA       LGT RAIN  51  49  92 S3        29.28R FOG
SUMTER         LGT RAIN  51  49  94 S7        29.26S
FLORENCE       MOSUNNY   55  50  83 S9        29.29S
MYRTLE BEACH   SUNNY     59  50  72 SW7       29.33F
N MYRTLE BEACH SUNNY     57  51  80 SW6       29.31F

$$

GAZ063-065-086>088-099>101-113>116-118-119-134>141-150-231500-
...SOUTHEAST GEORGIA...

CITY           SKY/WX    TMP DP  RH WIND       PRES   REMARKS
SAVANNAH ARPT  LGT RAIN  52  48  86 SW9       29.32R
HUNTER AAF     CLOUDY    52  52 100 S8        29.29R
FORT STEWART   DRIZZLE   52  48  87 SW9G20    29.30R
STATESBORO     DRIZZLE   52  32  46 SW6       29.30R
SYLVANIA       DRIZZLE  N/A N/A N/A CALM      29.30R
CLAXTON        CLOUDY   N/A N/A N/A CALM      29.31R

...CSRA...CENTRAL AND FAR SOUTHEAST GEORGIA...

CITY           SKY/WX    TMP DP  RH WIND       PRES   REMARKS
THOMSON        MOSUNNY   53  52  95 W7        29.32R
AUGUSTA-BUSH   PTSUNNY   53  49  86 S6        29.27R
AUGUSTA-DANIEL PTSUNNY   52  47  83 SW6       29.28R
SWAINSBORO     CLOUDY    52  52 100 MISG      29.30R
VIDALIA        CLOUDY    54  54 100 W9G25     29.32R
EASTMAN        CLOUDY    56  43  61 NW12G22   29.37R
HAZLEHURST     CLOUDY    56  55  98 W7        29.33R
ALMA           CLOUDY    54  49  83 SW18G26   29.33R
WAYCROSS       CLOUDY    58  54  87 W16G23    29.37R
JESUP          LGT RAIN  55  46  71 W9G18     29.35R
BAXLEY         CLOUDY    54  54 100 W9        29.33R
BRUNSWICK      PTSUNNY   55  50  82 SW16G26   29.36S
SAINT SIMONS   CLOUDY    56  47  71 SW18G25   29.35S

$$

SCZ027-028-034-036>038-045-046-048>050-GAZ119-141-231500-
...LAKE AND SUPPLEMENTAL COASTAL OBSERVATIONS...

STATION/POSITION TIME  TEMP    WIND        PRES    WAVE   SWELL
                       AIR SEA DIR/SP/G            HT/PER HT/PER/DIR
                 (UTC) (F)     (DEG/KT/KT) (MB)    (FT/S) (FT/S/D)
WINYAH BAY       NOT AVBL
LAKE MURRAY      1320   51     170/  8/ 10  990.5R
ACE BASIN NERRS  1245   55     190/  2      992.0
FORT PULASKI     1342   54 59  250/ 11/ 17  993.0R
SAPELO ISLAND    1300   55     210/ 14      993.0

$$

ANZ835-935-AMZ111-154-330-350-352-354-370-450-454-472-231500-
...C-MAN AND BUOY OBSERVATIONS...

STATION/POSITION TIME  TEMP    WIND        PRES    WAVE   SWELL
                       AIR SEA DIR/SP/G            HT/PER HT/PER/DIR
                 (UTC) (F)     (DEG/KT/KT) (MB)    (FT/S) (FT/S/D)
BUOY 41004       1250   63 67  230/ 19/ 25  992.3    9/11   5/180/11
BUOY 41008       1250   59 60  220/ 21/ 25  992.7    5/ 7   2/180/13
FOLLY BEACH CMAN 1300   57     230/ 10/ 14  993.1S
CAPERS NEARSHORE 1308   57 56  230/ 16/ 21  992.4F
FRIPP NEARSHORE  1308   58 58  220/ 19/ 23  992.6F


STATION/POSITION TIME  TEMP    WIND        PRES    WAVE   SWELL
                       AIR SEA DIR/SP/G            HT/PER HT/PER/DIR
                 (UTC) (F)     (DEG/KT/KT) (MB)    (FT/S) (FT/S/D)
5E ST. MARYS GA  1330      62                N/A     3/ 6   2/ 90/13
FRYING PAN BUOY  1310          220/ 14/ 17  993.5
BUOY 41025       1250   70 72  240/ 23/ 29  991.4    9/ 7   3/ 90/11
CAPE LOOKOUT NC  1300   59     230/ 12/ 16  992.0R
BUOY 41002       1250   68 71  190/ 17/ 23  996.9   15/10  13/180/10
BUOY 41010       NOT AVBL
ST AUGUSTINE FL  1300   58 64  230/  6/  8  997.5R


$$




USA.gov is the U.S. government's official web portal to all federal, state and local government web resources and services.